Location: Amsterdam
(30.7274°N, 84.4357°W)
Time: 22:13:03
(UTC+00:00)

Explorer 11/Cluster Stage 4 - Pass Details

Date: 24 February 2026
Orbit: 463 x 1176 km, 28.8° (Epoch: 9 March)

Event Time Altitude Azimuth Distance (km) Brightness Sun altitude
Rises 17:25:55 0° 265° (W) 3,414 9.8 49.6°
Reaches altitude 10° 17:28:44 10° 264° (W) 2,351 9.1 49.7°
Maximum altitude 17:34:12 72° 180° (S) 709 8.0 49.8°
Drops below altitude 10° 17:38:37 10° 97° (E) 1,908 8.8 49.9°
Sets 17:40:42 0° 95° (E) 2,722 9.4 49.9°
